Location: Cudham
(51.3000°N, 0.0667°E)
Time: 11:44:58
(UTC+00:00)

Helios 1B - Pass Details

Date: 19 May 2025
Orbit: 608 x 609 km, 98.2° (Epoch: 11 June)

Event Time Altitude Azimuth Distance (km) Brightness Sun altitude
Rises 22:31:47 0° 15° (NNE) 2,886 8.9 -16.3°
Reaches altitude 10° 22:33:59 10° 16° (NNE) 1,976 7.9 -16.5°
Maximum altitude 22:38:17 81° 105° (ESE) 624 4.4 -16.7°
Enters shadow 22:40:25 29° 190° (S) 1,122 5.4 -16.8°
